Macon, GA

12:06 PM EDT on March 25, 2017 (GMT -0400)
Middle Georgia Regional

Weather History for KMCN - March, 2013

Change the Weather History Date:

Sunday, March 3, 2013

  Actual Average Record
Temperature  
Mean Temperature 38 °F 54 °F  
Max Temperature 46 °F 66 °F 86 °F (1997)
Min Temperature 29 °F 41 °F 14 °F (1980)
Degree Days  
Heating Degree Days 27 12  
Month to date heating degree days 78 36  
Since 1 July heating degree days 1752 1961  
Cooling Degree Days 0 0  
Month to date cooling degree days 0 0  
Year to date cooling degree days 18 3  
Moisture  
Dew Point 22 °F    
Average Humidity 62    
Maximum Humidity 92    
Minimum Humidity 31    
Precipitation  
Precipitation 0.00 in 0.16 in 3.40 in (2001)
Month to date precipitation 0.00 0.47  
Year to date precipitation 14.92 9.07  
Snow  
Snow 0.00 in 0.00 in 0.00 in (2002)
Month to date snowfall 0.0 0.0  
Since 1 July snowfall 0.0 0.5  
Snow Depth -    
Sea Level Pressure  
Sea Level Pressure 30.06 in    
Wind  
Wind Speed 9 mph (WNW)    
Max Wind Speed 20 mph    
Max Gust Speed 25 mph    
Visibility 10 miles    
Events      
T = Trace of Precipitation, MM = Missing Value Source: NWS Daily Summary

Daily Weather History Graph

Daily Weather History Graph

Search for Another Location

Airport or City:

Trip Planner

Search our weather history database for the weather conditions in past years. The results will help you decide how hot, cold, wet, or windy it might be!

Date:

Astronomy

Mar. 03, 2013 Rise Set
Actual Time 6:59 AM EST 6:33 PM EST
Civil Twilight 6:34 AM EST 6:58 PM EST
Nautical Twilight 6:06 AM EST 7:26 PM EST
Astronomical Twilight 5:37 AM EST 7:55 PM EST
Moon No Moon Rise 10:35 AM EST (3/3)
Length of Visible Light 12h 23m
Length of Day
11h 34m
Waning Gibbous, 64% of the Moon is Illuminated
Mar 3
Waning Gibbous
Mar 4
Last Quarter
Mar 11
New
Mar 19
First Quarter
Mar 27
Full

Hourly Weather History & Observations

Time (EST) Temp. Windchill Dew Point Humidity Pressure Visibility Wind Dir Wind Speed Gust Speed Precip Events Conditions
12:53 AM 30.9 °F 25.2 °F 25.0 °F 79% 30.03 in 10.0 mi West 5.8 mph - N/A   Clear
1:53 AM 30.9 °F 25.2 °F 26.1 °F 82% 30.02 in 10.0 mi West 5.8 mph - N/A   Clear
2:53 AM 30.0 °F 24.1 °F 26.1 °F 85% 30.02 in 10.0 mi WNW 5.8 mph - N/A   Clear
3:53 AM 30.9 °F 27.5 °F 28.0 °F 89% 30.02 in 10.0 mi WNW 3.5 mph - N/A   Overcast
4:53 AM 33.1 °F 26.1 °F 27.0 °F 78% 30.03 in 10.0 mi NW 8.1 mph - N/A   Overcast
5:53 AM 34.0 °F 28.0 °F 27.0 °F 75% 30.03 in 10.0 mi NW 6.9 mph - N/A   Overcast
6:53 AM 35.1 °F 29.3 °F 24.1 °F 64% 30.04 in 10.0 mi NW 6.9 mph - N/A   Overcast
7:53 AM 35.1 °F 25.2 °F 23.0 °F 61% 30.05 in 10.0 mi NNW 16.1 mph 19.6 mph N/A   Overcast
8:53 AM 36.0 °F 26.7 °F 19.9 °F 52% 30.07 in 10.0 mi NW 15.0 mph - N/A   Overcast
9:53 AM 36.0 °F 28.0 °F 19.0 °F 50% 30.07 in 10.0 mi NW 11.5 mph 24.2 mph N/A   Overcast
10:53 AM 36.0 °F 26.7 °F 19.0 °F 50% 30.08 in 10.0 mi NW 15.0 mph 23.0 mph N/A   Overcast
11:53 AM 37.9 °F 30.5 °F 19.0 °F 47% 30.08 in 10.0 mi WNW 11.5 mph - N/A   Overcast
12:53 PM 37.9 °F 30.0 °F 19.9 °F 48% 30.07 in 10.0 mi WNW 12.7 mph 20.7 mph N/A   Overcast
1:53 PM 39.0 °F 32.3 °F 21.0 °F 49% 30.05 in 10.0 mi WNW 10.4 mph 23.0 mph N/A   Overcast
2:53 PM 43.0 °F 37.2 °F 19.0 °F 38% 30.03 in 10.0 mi WNW 10.4 mph 21.9 mph N/A   Scattered Clouds
3:53 PM 46.0 °F 39.9 °F 19.0 °F 34% 30.02 in 10.0 mi NNW 13.8 mph 20.7 mph N/A   Clear
4:53 PM 46.0 °F 39.6 °F 18.0 °F 33% 30.02 in 10.0 mi WNW 15.0 mph 19.6 mph N/A   Clear
5:53 PM 42.1 °F 35.7 °F 19.9 °F 41% 30.05 in 10.0 mi WNW 11.5 mph 19.6 mph N/A   Clear
6:53 PM 39.0 °F 33.4 °F 21.0 °F 49% 30.06 in 10.0 mi West 8.1 mph - N/A   Clear
7:53 PM 37.0 °F 31.6 °F 21.0 °F 52% 30.09 in 10.0 mi WNW 6.9 mph - N/A   Clear
8:53 PM 33.1 °F 27.7 °F 21.0 °F 61% 30.09 in 10.0 mi West 5.8 mph - N/A   Clear
9:53 PM 30.9 °F 26.2 °F 21.0 °F 67% 30.11 in 10.0 mi West 4.6 mph - N/A   Clear
10:53 PM 30.9 °F 25.2 °F 21.0 °F 67% 30.11 in 10.0 mi WNW 5.8 mph - N/A   Clear
11:53 PM 30.0 °F 25.2 °F 19.9 °F 66% 30.10 in 10.0 mi WNW 4.6 mph - N/A   Clear